DLH560 EDDF-FNBJ

Flight info

Callsign DLH560
Flight time N/A
Altitude 33000
Route ANEKI2L/18 ANEKI Y163 NATOR DCT TRA DCT RIPUS DCT GERSA DCT SOSON DCT ODINA DCT PIDAD DCT TALEP DCT VAREK DCT ERPIN DCT ETOIL/N0466F350 DCT CIRTA UA605 CSO UR978 AS UA604 ILBIP/N0464F370 UA604 DLA UG861 MESIN UY339 LIKAD UR526 VNA
Aircraft A343/H-SDE2E3FGHIJ3J5M1P2RWXYZ/LB1D1

Departure

Time 2026-05-05 20:28
Airport Frankfurt Main Airport (EDDF)

Arrival

Time N/A
Airport Dr. Antonio Agostinho Neto International Airport (FNBJ)
Time Latitude Longitude Altitude Speed Heading
2026-05-05 19:51 50.04777 8.56495 359 ft 0 kts 339°
2026-05-05 20:09 50.04776 8.56496 359 ft 2 kts 339°
2026-05-05 20:09 50.04752 8.56511 366 ft 4 kts 338°
2026-05-05 20:09 50.04726 8.56526 367 ft 4 kts 341°
2026-05-05 20:10 50.04710 8.56534 366 ft 4 kts 348°
2026-05-05 20:10 50.04685 8.56535 363 ft 3 kts 25°
2026-05-05 20:10 50.04664 8.56520 365 ft 4 kts 23°
2026-05-05 20:10 50.04639 8.56504 365 ft 4 kts 23°
2026-05-05 20:11 50.04635 8.56501 365 ft 4 kts 23°
2026-05-05 20:11 50.04660 8.56502 368 ft 4 kts 345°
2026-05-05 20:11 50.04676 8.56474 365 ft 4 kts 298°
2026-05-05 20:11 50.04677 8.56439 366 ft 4 kts 251°
2026-05-05 20:12 50.04666 8.56414 368 ft 4 kts 217°
2026-05-05 20:12 50.04656 8.56391 364 ft 1 kts 250°
2026-05-05 20:16 50.04655 8.56389 365 ft 0 kts 250°
2026-05-05 20:16 50.04649 8.56363 366 ft 4 kts 249°
2026-05-05 20:16 50.04635 8.56306 368 ft 8 kts 249°
2026-05-05 20:16 50.04613 8.56214 365 ft 10 kts 249°
2026-05-05 20:17 50.04590 8.56117 363 ft 9 kts 250°
2026-05-05 20:17 50.04568 8.56024 366 ft 9 kts 250°
2026-05-05 20:17 50.04529 8.55958 367 ft 8 kts 206°
2026-05-05 20:17 50.04480 8.55935 365 ft 7 kts 196°
2026-05-05 20:18 50.04436 8.55915 366 ft 7 kts 196°
2026-05-05 20:18 50.04381 8.55911 364 ft 9 kts 171°
2026-05-05 20:18 50.04328 8.55939 365 ft 2 kts 160°
2026-05-05 20:18 50.04326 8.55939 365 ft 0 kts 160°
2026-05-05 20:20 50.04313 8.55947 361 ft 4 kts 160°
2026-05-05 20:20 50.04272 8.55958 359 ft 7 kts 189°
2026-05-05 20:20 50.04234 8.55906 366 ft 9 kts 238°
2026-05-05 20:21 50.04209 8.55813 360 ft 10 kts 249°
2026-05-05 20:21 50.04185 8.55714 361 ft 10 kts 249°
2026-05-05 20:21 50.04158 8.55601 362 ft 12 kts 250°
2026-05-05 20:21 50.04126 8.55465 359 ft 15 kts 250°
2026-05-05 20:22 50.04088 8.55310 363 ft 16 kts 250°
2026-05-05 20:22 50.04051 8.55152 364 ft 15 kts 250°
2026-05-05 20:22 50.04013 8.54991 361 ft 16 kts 250°
2026-05-05 20:22 50.03973 8.54826 361 ft 17 kts 249°
2026-05-05 20:23 50.03932 8.54656 361 ft 17 kts 249°
2026-05-05 20:23 50.03890 8.54481 358 ft 18 kts 249°
2026-05-05 20:23 50.03834 8.54313 359 ft 17 kts 234°
2026-05-05 20:23 50.03782 8.54148 355 ft 17 kts 249°
2026-05-05 20:24 50.03739 8.53972 352 ft 17 kts 250°
2026-05-05 20:24 50.03698 8.53799 351 ft 17 kts 250°
2026-05-05 20:24 50.03657 8.53626 352 ft 17 kts 249°
2026-05-05 20:24 50.03614 8.53459 349 ft 17 kts 250°
2026-05-05 20:25 50.03573 8.53289 354 ft 17 kts 249°
2026-05-05 20:25 50.03533 8.53120 351 ft 17 kts 249°
2026-05-05 20:25 50.03492 8.52951 337 ft 17 kts 249°
2026-05-05 20:25 50.03447 8.52785 335 ft 17 kts 247°
2026-05-05 20:26 50.03412 8.52645 337 ft 10 kts 247°
2026-05-05 20:26 50.03358 8.52595 336 ft 9 kts 187°
2026-05-05 20:26 50.03297 8.52595 335 ft 9 kts 180°
2026-05-05 20:26 50.03189 8.52595 337 ft 31 kts 180°
2026-05-05 20:27 50.02789 8.52600 334 ft 83 kts 179°
2026-05-05 20:27 50.02058 8.52609 335 ft 126 kts 180°
2026-05-05 20:27 50.01056 8.52619 333 ft 161 kts 179°
2026-05-05 20:27 49.99889 8.52631 681 ft 168 kts 180°
2026-05-05 20:28 49.98704 8.52667 1124 ft 173 kts 178°
2026-05-05 20:28 49.97497 8.52760 1580 ft 178 kts 179°
2026-05-05 20:28 49.96196 8.52863 1831 ft 198 kts 179°
2026-05-05 20:28 49.94740 8.52970 2021 ft 223 kts 179°
2026-05-05 20:29 49.93127 8.53087 2444 ft 239 kts 179°
2026-05-05 20:29 49.91442 8.53210 3094 ft 244 kts 179°
2026-05-05 20:29 49.89732 8.53334 3821 ft 248 kts 179°
2026-05-05 20:29 49.87998 8.53457 4549 ft 251 kts 180°
2026-05-05 20:30 49.86246 8.53582 5273 ft 254 kts 180°
2026-05-05 20:30 49.84469 8.53706 5983 ft 257 kts 180°
2026-05-05 20:30 49.82671 8.53832 6671 ft 260 kts 180°
2026-05-05 20:30 49.80850 8.53959 7349 ft 263 kts 180°
2026-05-05 20:31 49.79010 8.54086 8042 ft 266 kts 181°
2026-05-05 20:31 49.77153 8.54018 8668 ft 269 kts 186°
2026-05-05 20:31 49.75265 8.53786 9263 ft 274 kts 187°
2026-05-05 20:31 49.73353 8.53525 9889 ft 278 kts 187°
2026-05-05 20:32 49.71382 8.53255 10235 ft 291 kts 187°
2026-05-05 20:32 49.69312 8.52974 10485 ft 307 kts 187°
2026-05-05 20:32 49.67130 8.52682 10716 ft 322 kts 187°
2026-05-05 20:32 49.64846 8.52378 10958 ft 336 kts 187°
2026-05-05 20:33 49.62486 8.52067 11346 ft 344 kts 187°
2026-05-05 20:33 49.60086 8.51752 11829 ft 349 kts 187°
2026-05-05 20:33 49.57650 8.51432 12345 ft 353 kts 187°
2026-05-05 20:33 49.55190 8.51110 12879 ft 357 kts 187°
2026-05-05 20:34 49.52705 8.50784 13451 ft 360 kts 187°
2026-05-05 20:34 49.50200 8.50456 13986 ft 363 kts 187°
2026-05-05 20:34 49.47673 8.50125 14494 ft 366 kts 187°
2026-05-05 20:34 49.45124 8.49791 14988 ft 369 kts 186°
2026-05-05 20:35 49.42550 8.49455 15511 ft 372 kts 186°
2026-05-05 20:35 49.39968 8.49118 16103 ft 373 kts 186°
2026-05-05 20:35 49.37379 8.48780 16631 ft 375 kts 186°
2026-05-05 20:35 49.34805 8.48444 17142 ft 378 kts 186°
2026-05-05 20:36 49.32176 8.48102 17664 ft 380 kts 186°
2026-05-05 20:36 49.29537 8.47758 18174 ft 383 kts 186°
2026-05-05 20:36 49.26874 8.47416 18607 ft 385 kts 186°
2026-05-05 20:36 49.24191 8.47070 19034 ft 388 kts 186°
2026-05-05 20:37 49.21492 8.46719 19457 ft 391 kts 185°
2026-05-05 20:37 49.18776 8.46364 19939 ft 392 kts 185°
2026-05-05 20:37 49.16052 8.46008 20392 ft 394 kts 185°
2026-05-05 20:37 49.13309 8.45651 20819 ft 397 kts 185°
2026-05-05 20:38 49.10555 8.45293 21248 ft 399 kts 185°
2026-05-05 20:38 49.07772 8.44912 21659 ft 402 kts 187°
2026-05-05 20:38 49.05008 8.44200 22076 ft 404 kts 191°
2026-05-05 20:38 49.02243 8.43342 22483 ft 407 kts 192°
2026-05-05 20:39 48.99474 8.42413 22886 ft 409 kts 192°
2026-05-05 20:39 48.96706 8.41446 23375 ft 409 kts 192°
2026-05-05 20:39 48.93926 8.40462 23714 ft 411 kts 192°
2026-05-05 20:39 48.91134 8.39474 24030 ft 413 kts 192°
2026-05-05 20:40 48.88330 8.38488 24360 ft 415 kts 192°
2026-05-05 20:40 48.85503 8.37500 24665 ft 417 kts 192°
2026-05-05 20:40 48.82665 8.36514 24980 ft 419 kts 192°
2026-05-05 20:40 48.79817 8.35528 25293 ft 421 kts 192°
2026-05-05 20:41 48.76970 8.34540 25609 ft 422 kts 193°
2026-05-05 20:41 48.74110 8.33511 26028 ft 421 kts 193°
2026-05-05 20:41 48.71262 8.32465 26294 ft 423 kts 194°
2026-05-05 20:41 48.68393 8.31404 26582 ft 425 kts 194°
2026-05-05 20:42 48.65517 8.30344 26885 ft 427 kts 194°
2026-05-05 20:42 48.62625 8.29282 27155 ft 428 kts 194°
2026-05-05 20:42 48.59722 8.28221 27411 ft 430 kts 194°
2026-05-05 20:42 48.56807 8.27160 27710 ft 432 kts 194°
2026-05-05 20:43 48.53879 8.26097 27968 ft 434 kts 194°
2026-05-05 20:43 48.50914 8.25247 28230 ft 436 kts 187°
2026-05-05 20:43 48.47919 8.24999 28474 ft 439 kts 179°
2026-05-05 20:43 48.44873 8.25375 28721 ft 441 kts 174°
2026-05-05 20:44 48.41818 8.25993 28936 ft 444 kts 173°
2026-05-05 20:44 48.38764 8.26721 29196 ft 445 kts 172°
2026-05-05 20:44 48.35703 8.27496 29429 ft 447 kts 172°
2026-05-05 20:44 48.32633 8.28282 29658 ft 448 kts 173°
2026-05-05 20:45 48.26453 8.29834 30067 ft 452 kts 173°
2026-05-05 20:45 48.23349 8.30595 30266 ft 453 kts 173°
2026-05-05 20:45 48.20236 8.31349 30510 ft 452 kts 173°
2026-05-05 20:46 48.17135 8.32096 30787 ft 452 kts 173°
2026-05-05 20:46 48.14038 8.32847 31042 ft 451 kts 173°
2026-05-05 20:46 48.10935 8.33600 31300 ft 450 kts 173°
2026-05-05 20:46 48.07845 8.34348 31552 ft 450 kts 173°
2026-05-05 20:47 48.04753 8.35096 31787 ft 450 kts 173°
2026-05-05 20:47 48.01668 8.35841 32012 ft 450 kts 173°
2026-05-05 20:47 47.98578 8.36587 32240 ft 449 kts 173°
2026-05-05 20:47 47.95496 8.37330 32461 ft 449 kts 173°
2026-05-05 20:48 47.92408 8.38074 32680 ft 449 kts 173°
2026-05-05 20:48 47.89322 8.38816 32874 ft 449 kts 173°
2026-05-05 20:48 47.83220 8.40285 32904 ft 439 kts 173°
2026-05-05 20:49 47.77218 8.41724 32907 ft 437 kts 173°
2026-05-05 20:49 47.71208 8.43159 32893 ft 437 kts 174°
2026-05-05 20:50 47.66226 8.44294 32909 ft 433 kts 176°
2026-05-05 20:50 47.59255 8.45296 32913 ft 429 kts 178°
2026-05-05 20:51 47.53297 8.46052 32912 ft 430 kts 178°
2026-05-05 20:51 47.47345 8.46879 32907 ft 430 kts 178°
2026-05-05 20:52 47.41391 8.47747 32912 ft 430 kts 178°
2026-05-05 20:52 47.35437 8.48622 32912 ft 430 kts 178°
2026-05-05 20:53 47.29488 8.49493 32910 ft 430 kts 178°
2026-05-05 20:53 47.23576 8.50359 32908 ft 429 kts 178°
2026-05-05 20:54 47.17602 8.51232 32910 ft 428 kts 179°
2026-05-05 20:54 47.11711 8.52085 32912 ft 428 kts 178°
2026-05-05 20:55 47.05783 8.52943 32903 ft 428 kts 179°
2026-05-05 20:55 46.99872 8.53802 32921 ft 425 kts 179°
2026-05-05 20:56 46.93989 8.54650 32920 ft 425 kts 179°
2026-05-05 20:56 46.88106 8.55493 32923 ft 425 kts 179°
2026-05-05 20:57 46.83212 8.56196 32929 ft 424 kts 180°
2026-05-05 20:57 46.77353 8.57043 32924 ft 423 kts 180°
2026-05-05 20:58 46.71494 8.57880 32956 ft 422 kts 180°
2026-05-05 20:58 46.65653 8.58706 32951 ft 422 kts 180°
2026-05-05 20:59 46.59816 8.59538 32958 ft 420 kts 181°
2026-05-05 20:59 46.54011 8.60371 32965 ft 419 kts 181°
2026-05-05 21:00 46.48214 8.61192 32979 ft 419 kts 181°
2026-05-05 21:00 46.42425 8.62012 32998 ft 419 kts 180°
2026-05-05 21:01 46.36611 8.62827 32992 ft 420 kts 181°
2026-05-05 21:01 46.30793 8.63642 32994 ft 420 kts 181°
2026-05-05 21:02 46.24986 8.64458 32988 ft 419 kts 180°
2026-05-05 21:02 46.19203 8.65270 32985 ft 416 kts 181°
2026-05-05 21:03 46.13447 8.66075 32989 ft 415 kts 181°
2026-05-05 21:03 46.07686 8.66785 32990 ft 414 kts 183°
2026-05-05 21:04 46.01941 8.66880 32996 ft 412 kts 186°
2026-05-05 21:04 45.96232 8.66847 32995 ft 409 kts 186°
2026-05-05 21:05 45.90541 8.66890 32995 ft 410 kts 185°
2026-05-05 21:05 45.84843 8.66993 32993 ft 409 kts 185°
2026-05-05 21:06 45.79152 8.67109 32996 ft 408 kts 185°
2026-05-05 21:06 45.73513 8.67223 32999 ft 405 kts 186°
2026-05-05 21:07 45.67880 8.67334 32993 ft 404 kts 186°
2026-05-05 21:07 45.62262 8.67444 32991 ft 404 kts 186°
2026-05-05 21:08 45.56684 8.67555 32993 ft 403 kts 186°
2026-05-05 21:08 45.51043 8.67665 32993 ft 403 kts 186°
2026-05-05 21:09 45.45440 8.67774 32993 ft 403 kts 186°
2026-05-05 21:09 45.39878 8.67883 32992 ft 402 kts 187°
2026-05-05 21:10 45.34299 8.67992 32994 ft 400 kts 187°
2026-05-05 21:10 45.28728 8.68100 32994 ft 400 kts 187°
2026-05-05 21:11 45.23155 8.68208 32988 ft 400 kts 187°
2026-05-05 21:11 45.17592 8.68303 32968 ft 399 kts 187°
2026-05-05 21:12 45.12034 8.68396 32967 ft 399 kts 187°
2026-05-05 21:12 45.06477 8.68492 32966 ft 399 kts 187°
2026-05-05 21:13 45.00924 8.68589 32962 ft 399 kts 187°
2026-05-05 21:13 44.95369 8.68688 32967 ft 399 kts 187°
2026-05-05 21:14 44.89818 8.68783 32975 ft 399 kts 187°
2026-05-05 21:14 44.84266 8.68879 32960 ft 399 kts 187°
2026-05-05 21:15 44.78730 8.68976 32978 ft 398 kts 187°
2026-05-05 21:15 44.73191 8.69072 32969 ft 398 kts 187°
2026-05-05 21:16 44.67657 8.69167 32970 ft 398 kts 187°
2026-05-05 21:16 44.62121 8.69258 32962 ft 398 kts 187°
2026-05-05 21:17 44.56590 8.69357 32970 ft 397 kts 187°
2026-05-05 21:17 44.51102 8.69444 32964 ft 396 kts 187°
2026-05-05 21:18 44.45592 8.69538 32967 ft 396 kts 187°
2026-05-05 21:18 44.40071 8.69635 32962 ft 397 kts 187°
2026-05-05 21:19 44.34541 8.69733 32965 ft 398 kts 187°
2026-05-05 21:19 44.29008 8.69830 32968 ft 397 kts 187°
2026-05-05 21:20 44.23478 8.69925 32959 ft 397 kts 187°
2026-05-05 21:20 44.17954 8.70019 32959 ft 397 kts 187°
2026-05-05 21:21 44.12430 8.70112 32958 ft 397 kts 187°
2026-05-05 21:21 44.06904 8.70205 32950 ft 398 kts 187°
2026-05-05 21:22 44.01354 8.70296 32952 ft 400 kts 187°
2026-05-05 21:22 43.95790 8.70391 32952 ft 400 kts 187°
2026-05-05 21:23 43.90229 8.70486 32952 ft 400 kts 187°
2026-05-05 21:23 43.84667 8.70580 32947 ft 400 kts 187°
2026-05-05 21:24 43.79098 8.70673 32948 ft 400 kts 187°
2026-05-05 21:24 43.73531 8.70766 32951 ft 400 kts 187°
2026-05-05 21:25 43.67966 8.70859 32943 ft 400 kts 187°
2026-05-05 21:25 43.62437 8.70952 32955 ft 400 kts 187°
2026-05-05 21:26 43.56872 8.71044 32954 ft 400 kts 187°
2026-05-05 21:26 43.51321 8.71137 32954 ft 398 kts 187°
2026-05-05 21:27 43.45908 8.70367 32952 ft 387 kts 199°
2026-05-05 21:27 43.40878 8.67937 32950 ft 382 kts 207°
2026-05-05 21:28 43.36077 8.64832 32949 ft 381 kts 210°
2026-05-05 21:28 43.31312 8.61624 32950 ft 381 kts 209°
2026-05-05 21:29 43.26514 8.58462 32946 ft 385 kts 209°
2026-05-05 21:29 43.21662 8.55322 32944 ft 386 kts 209°
2026-05-05 21:30 43.16802 8.52198 32950 ft 386 kts 209°
2026-05-05 21:30 43.11938 8.49078 32946 ft 386 kts 209°
2026-05-05 21:31 43.07071 8.45958 32944 ft 387 kts 209°
2026-05-05 21:31 43.02185 8.42829 32944 ft 388 kts 209°
2026-05-05 21:32 42.97300 8.39707 32944 ft 388 kts 209°
2026-05-05 21:32 42.92444 8.36609 32944 ft 388 kts 209°
2026-05-05 21:33 42.87544 8.33488 32962 ft 390 kts 209°
2026-05-05 21:33 42.82657 8.30383 32941 ft 386 kts 209°
2026-05-05 21:34 42.77795 8.27298 32943 ft 385 kts 209°
2026-05-05 21:34 42.72933 8.24216 32941 ft 386 kts 209°
2026-05-05 21:35 42.68061 8.21133 32940 ft 388 kts 209°
2026-05-05 21:35 42.63162 8.18040 32938 ft 388 kts 209°
2026-05-05 21:36 42.58261 8.14952 32938 ft 388 kts 209°
2026-05-05 21:36 42.53360 8.11869 32942 ft 388 kts 209°
2026-05-05 21:37 42.48460 8.08792 32943 ft 388 kts 209°
2026-05-05 21:37 42.43556 8.05717 32938 ft 388 kts 209°
2026-05-05 21:38 42.38655 8.02649 32935 ft 388 kts 209°
2026-05-05 21:38 42.33751 7.99585 32935 ft 388 kts 209°
2026-05-05 21:39 42.28817 7.96561 32958 ft 391 kts 207°
2026-05-05 21:39 42.23784 7.93800 32942 ft 390 kts 206°
2026-05-05 21:40 42.18784 7.91124 32940 ft 389 kts 206°
2026-05-05 21:40 42.13762 7.88400 32946 ft 389 kts 206°
2026-05-05 21:41 42.08734 7.85646 32933 ft 391 kts 207°
2026-05-05 21:41 42.03688 7.82879 32954 ft 392 kts 207°
2026-05-05 21:42 41.98637 7.80117 32939 ft 392 kts 207°
2026-05-05 21:42 41.93584 7.77359 32942 ft 392 kts 207°
2026-05-05 21:43 41.88514 7.74596 32944 ft 395 kts 207°
2026-05-05 21:43 41.83415 7.71822 32938 ft 396 kts 207°
2026-05-05 21:44 41.78312 7.69054 32941 ft 396 kts 206°
2026-05-05 21:44 41.73209 7.66289 32941 ft 396 kts 206°
2026-05-05 21:45 41.68093 7.63520 32943 ft 398 kts 206°
2026-05-05 21:45 41.62955 7.60744 32941 ft 398 kts 206°
2026-05-05 21:46 41.57806 7.58108 32953 ft 401 kts 201°
2026-05-05 21:46 41.52345 7.56500 32905 ft 402 kts 196°
2026-05-05 21:47 41.46804 7.55201 32939 ft 406 kts 195°
2026-05-05 21:47 41.41230 7.53953 32938 ft 406 kts 195°
2026-05-05 21:48 41.35655 7.52695 32941 ft 406 kts 195°
2026-05-05 21:48 41.31023 7.51638 32917 ft 406 kts 195°
2026-05-05 21:49 41.25431 7.50356 32941 ft 409 kts 195°
2026-05-05 21:49 41.19821 7.49073 32941 ft 409 kts 195°
2026-05-05 21:50 41.14207 7.47792 32941 ft 409 kts 195°
2026-05-05 21:50 41.08593 7.46515 32940 ft 410 kts 195°
2026-05-05 21:51 41.02964 7.45235 32944 ft 411 kts 195°
2026-05-05 21:51 40.97329 7.43957 32947 ft 411 kts 195°
2026-05-05 21:52 40.88871 7.42043 32920 ft 411 kts 195°
2026-05-05 21:53 40.83220 7.40765 32945 ft 413 kts 195°
2026-05-05 21:53 40.77551 7.39486 32950 ft 414 kts 195°
2026-05-05 21:54 40.71880 7.38211 32945 ft 413 kts 195°
2026-05-05 21:54 40.66208 7.36937 32936 ft 414 kts 195°
2026-05-05 21:55 40.60518 7.35659 32956 ft 415 kts 195°
2026-05-05 21:55 40.54818 7.34382 32953 ft 416 kts 195°
2026-05-05 21:56 40.49118 7.33109 32952 ft 416 kts 195°
2026-05-05 21:56 40.43412 7.31836 32960 ft 416 kts 195°
2026-05-05 21:57 40.37712 7.30566 32960 ft 416 kts 195°
2026-05-05 21:57 40.32047 7.29306 32960 ft 416 kts 195°
2026-05-05 21:58 40.26344 7.28039 32961 ft 416 kts 195°
2026-05-05 21:58 40.20631 7.26772 32963 ft 418 kts 195°
2026-05-05 21:59 40.14883 7.25499 32963 ft 419 kts 195°
2026-05-05 21:59 40.09132 7.24229 32964 ft 419 kts 195°
2026-05-05 22:00 40.03376 7.22961 32969 ft 419 kts 195°
2026-05-05 22:00 39.97618 7.21693 32976 ft 420 kts 195°
2026-05-05 22:01 39.91847 7.20425 32975 ft 421 kts 195°
2026-05-05 22:01 39.86069 7.19157 32966 ft 421 kts 195°
2026-05-05 22:02 39.80290 7.17892 32956 ft 421 kts 194°
2026-05-05 22:02 39.74501 7.16624 33040 ft 424 kts 194°
2026-05-05 22:03 39.68628 7.15416 33203 ft 431 kts 193°
2026-05-05 22:03 39.62645 7.14380 33438 ft 436 kts 192°
2026-05-05 22:03 39.59639 7.13870 33634 ft 436 kts 192°
2026-05-05 22:04 39.56635 7.13355 33796 ft 436 kts 192°
2026-05-05 22:04 39.53627 7.12831 33962 ft 437 kts 192°
2026-05-05 22:04 39.50615 7.12300 34138 ft 436 kts 192°
2026-05-05 22:04 39.47608 7.11766 34338 ft 436 kts 192°
2026-05-05 22:05 39.44646 7.11238 34515 ft 435 kts 192°
2026-05-05 22:05 39.41647 7.10704 34693 ft 435 kts 192°
2026-05-05 22:05 39.38651 7.10170 34859 ft 434 kts 192°
2026-05-05 22:06 39.32659 7.09104 34982 ft 433 kts 192°
2026-05-05 22:06 39.26714 7.08051 34986 ft 431 kts 192°
2026-05-05 22:07 39.20779 7.06999 34985 ft 431 kts 192°
2026-05-05 22:07 39.14839 7.05949 34988 ft 431 kts 192°
2026-05-05 22:08 39.08891 7.04899 34988 ft 432 kts 192°
2026-05-05 22:08 39.02934 7.03849 34988 ft 432 kts 192°
2026-05-05 22:09 38.96972 7.02809 34990 ft 433 kts 191°
2026-05-05 22:09 38.90997 7.01840 34970 ft 433 kts 191°
2026-05-05 22:10 38.85010 7.00887 34992 ft 434 kts 191°
2026-05-05 22:10 38.79008 6.99923 34994 ft 435 kts 191°
2026-05-05 22:11 38.73048 6.98960 34992 ft 435 kts 191°
2026-05-05 22:11 38.67052 6.97991 34984 ft 435 kts 191°
2026-05-05 22:12 38.61047 6.97021 34994 ft 435 kts 191°
2026-05-05 22:12 38.55042 6.96054 34996 ft 435 kts 191°
2026-05-05 22:13 38.49037 6.95089 35001 ft 435 kts 191°
2026-05-05 22:13 38.43032 6.94125 34990 ft 435 kts 191°
2026-05-05 22:14 38.37016 6.93161 35000 ft 436 kts 191°
2026-05-05 22:14 38.30996 6.92198 34999 ft 436 kts 191°
2026-05-05 22:15 38.24971 6.91236 34999 ft 436 kts 191°
2026-05-05 22:15 38.18955 6.90277 34998 ft 436 kts 191°
2026-05-05 22:16 38.12933 6.89319 34998 ft 436 kts 191°
2026-05-05 22:16 38.06915 6.88363 34999 ft 436 kts 191°
2026-05-05 22:17 38.00888 6.87407 34996 ft 436 kts 191°
2026-05-05 22:17 37.94870 6.86454 34999 ft 436 kts 191°
2026-05-05 22:18 37.88858 6.85503 34988 ft 435 kts 191°
2026-05-05 22:18 37.82841 6.84553 34997 ft 435 kts 191°
2026-05-05 22:19 37.76825 6.83604 34995 ft 437 kts 191°
2026-05-05 22:19 37.70800 6.82656 34998 ft 436 kts 191°
2026-05-05 22:20 37.64795 6.81715 34996 ft 435 kts 191°
2026-05-05 22:20 37.58790 6.80773 34998 ft 435 kts 191°
2026-05-05 22:21 37.52789 6.79833 34989 ft 435 kts 191°
2026-05-05 22:21 37.46833 6.78902 34997 ft 434 kts 191°
2026-05-05 22:22 37.40845 6.77968 34996 ft 434 kts 191°
2026-05-05 22:22 37.34856 6.77035 34992 ft 434 kts 191°
2026-05-05 22:23 37.28864 6.76102 34989 ft 434 kts 191°
2026-05-05 22:23 37.22875 6.75171 34994 ft 434 kts 191°
2026-05-05 22:24 37.16886 6.74243 34994 ft 434 kts 191°
2026-05-05 22:24 37.10891 6.73315 34993 ft 434 kts 191°
2026-05-05 22:25 37.04895 6.72388 34996 ft 434 kts 191°
2026-05-05 22:25 36.98893 6.71462 34996 ft 436 kts 191°
2026-05-05 22:26 36.92868 6.70535 35002 ft 437 kts 190°
2026-05-05 22:26 36.86837 6.69609 35003 ft 437 kts 190°
2026-05-05 22:27 36.80803 6.68684 35003 ft 437 kts 190°
2026-05-05 22:27 36.74757 6.67753 35007 ft 439 kts 191°
2026-05-05 22:28 36.68678 6.66821 35005 ft 440 kts 191°
2026-05-05 22:28 36.62599 6.65893 35010 ft 440 kts 191°
2026-05-05 22:29 36.56520 6.64966 35013 ft 440 kts 190°
2026-05-05 22:29 36.50462 6.64042 35043 ft 442 kts 190°
2026-05-05 22:30 36.44353 6.63110 35055 ft 443 kts 190°
2026-05-05 22:30 36.38231 6.62180 35080 ft 443 kts 190°
2026-05-05 22:31 36.32117 6.61253 35073 ft 443 kts 190°
2026-05-05 22:31 36.25933 6.61055 35076 ft 446 kts 182°
2026-05-05 22:32 36.19719 6.61383 35076 ft 447 kts 181°
2026-05-05 22:32 36.13506 6.61803 35062 ft 447 kts 180°
2026-05-05 22:33 36.07287 6.62220 35050 ft 447 kts 181°
2026-05-05 22:33 36.01074 6.62620 35035 ft 448 kts 181°
2026-05-05 22:34 35.94850 6.63012 35022 ft 448 kts 181°
2026-05-05 22:34 35.88621 6.63402 35018 ft 448 kts 181°
2026-05-05 22:35 35.82392 6.63793 35015 ft 448 kts 181°
2026-05-05 22:35 35.76162 6.64184 35016 ft 448 kts 181°
2026-05-05 22:36 35.69940 6.64574 35016 ft 448 kts 181°
2026-05-05 22:36 35.63714 6.64963 35008 ft 448 kts 181°
2026-05-05 22:37 35.57487 6.65352 35013 ft 448 kts 181°
2026-05-05 22:37 35.52301 6.65675 35011 ft 451 kts 182°
2026-05-05 22:38 35.44994 6.66128 35011 ft 453 kts 182°
2026-05-05 22:38 35.38703 6.66519 35010 ft 453 kts 182°
2026-05-05 22:39 35.32407 6.66908 35002 ft 453 kts 182°
2026-05-05 22:39 35.27129 6.67232 35000 ft 454 kts 183°
2026-05-05 22:40 35.20819 6.67625 34993 ft 454 kts 183°
2026-05-05 22:40 35.14510 6.68019 34982 ft 454 kts 183°
2026-05-05 22:41 35.08230 6.68407 34978 ft 454 kts 183°
2026-05-05 22:41 35.01920 6.68793 34958 ft 455 kts 184°
2026-05-05 22:42 34.95581 6.69179 34938 ft 457 kts 183°
2026-05-05 22:42 34.89238 6.69570 34942 ft 456 kts 183°
2026-05-05 22:43 34.82899 6.69960 34915 ft 456 kts 184°
2026-05-05 22:43 34.76548 6.70349 34916 ft 458 kts 184°
2026-05-05 22:44 34.70168 6.70745 34896 ft 460 kts 184°
2026-05-05 22:44 34.63773 6.71146 34874 ft 460 kts 184°
2026-05-05 22:45 34.57380 6.71545 34880 ft 460 kts 184°
2026-05-05 22:45 34.50987 6.71942 34865 ft 461 kts 185°
2026-05-05 22:46 34.44573 6.72337 34856 ft 462 kts 185°
2026-05-05 22:46 34.38150 6.72734 34857 ft 462 kts 185°
2026-05-05 22:47 34.31732 6.73131 34854 ft 462 kts 185°
2026-05-05 22:47 34.25310 6.73527 34852 ft 464 kts 185°
2026-05-05 22:48 34.18843 6.73922 34852 ft 466 kts 185°
2026-05-05 22:48 34.12363 6.74321 34850 ft 466 kts 185°
2026-05-05 22:49 34.05886 6.74720 34852 ft 466 kts 185°
2026-05-05 22:49 33.99408 6.75116 34845 ft 467 kts 186°
2026-05-05 22:50 33.92939 6.75509 34857 ft 469 kts 186°
2026-05-05 22:50 33.86414 6.75908 34849 ft 470 kts 186°
2026-05-05 22:51 33.79887 6.76308 34846 ft 470 kts 186°
2026-05-05 22:51 33.73356 6.76706 34823 ft 471 kts 187°
2026-05-05 22:52 33.66779 6.77102 34829 ft 474 kts 187°
2026-05-05 22:52 33.60189 6.77503 34832 ft 474 kts 187°
2026-05-05 22:53 33.53596 6.77905 34831 ft 474 kts 187°
2026-05-05 22:53 33.47010 6.78236 34821 ft 472 kts 189°
2026-05-05 22:54 33.40462 6.78283 34830 ft 470 kts 191°
2026-05-05 22:54 33.33923 6.78287 34833 ft 470 kts 191°
2026-05-05 22:55 33.27372 6.78332 34824 ft 471 kts 190°
2026-05-05 22:55 33.20816 6.78403 34827 ft 471 kts 190°
2026-05-05 22:56 33.14307 6.78480 34818 ft 471 kts 190°
2026-05-05 22:56 33.07751 6.78557 34813 ft 471 kts 190°
2026-05-05 22:57 33.01193 6.78633 34812 ft 471 kts 190°
2026-05-05 22:57 32.94637 6.78708 34801 ft 471 kts 190°
2026-05-05 22:58 32.88104 6.78784 34797 ft 469 kts 190°
2026-05-05 22:58 32.81580 6.78858 34796 ft 469 kts 190°
2026-05-05 22:59 32.75057 6.78931 34789 ft 469 kts 190°
2026-05-05 22:59 32.68534 6.79004 34780 ft 468 kts 189°
2026-05-05 23:00 32.58804 6.79117 34788 ft 465 kts 189°
2026-05-05 23:00 32.52344 6.79188 34782 ft 465 kts 189°
2026-05-05 23:01 32.45873 6.79259 34780 ft 465 kts 189°
2026-05-05 23:01 32.39409 6.79333 34772 ft 464 kts 189°
2026-05-05 23:02 32.32961 6.79406 34772 ft 463 kts 189°
2026-05-05 23:02 32.26563 6.79477 34768 ft 463 kts 189°
2026-05-05 23:03 32.20125 6.79550 34766 ft 463 kts 189°
2026-05-05 23:03 32.13683 6.79621 34762 ft 464 kts 190°
2026-05-05 23:04 32.07217 6.79690 34759 ft 465 kts 190°
2026-05-05 23:04 32.00742 6.79763 34761 ft 465 kts 190°
2026-05-05 23:05 31.94265 6.79837 34754 ft 465 kts 190°
2026-05-05 23:05 31.87789 6.79910 34735 ft 465 kts 190°
2026-05-05 23:06 31.81315 6.79982 34751 ft 465 kts 190°
2026-05-05 23:06 31.74856 6.80055 34749 ft 465 kts 190°
2026-05-05 23:07 31.68388 6.80126 34752 ft 464 kts 190°
2026-05-05 23:07 31.61926 6.80197 34752 ft 465 kts 190°
2026-05-05 23:08 31.55457 6.80267 34746 ft 465 kts 189°
2026-05-05 23:08 31.48986 6.80338 34747 ft 465 kts 189°
2026-05-05 23:09 31.42558 6.80410 34742 ft 465 kts 189°
2026-05-05 23:09 31.36083 6.80481 34746 ft 465 kts 189°
2026-05-05 23:10 31.29610 6.80553 34745 ft 465 kts 189°
2026-05-05 23:10 31.23141 6.80625 34746 ft 465 kts 189°
2026-05-05 23:11 31.16675 6.80694 34747 ft 465 kts 189°
2026-05-05 23:11 31.10207 6.80765 34746 ft 465 kts 189°
2026-05-05 23:12 31.03734 6.80836 34736 ft 465 kts 189°
2026-05-05 23:12 30.97268 6.80906 34741 ft 465 kts 189°
2026-05-05 23:13 30.90801 6.80976 34745 ft 465 kts 189°
2026-05-05 23:13 30.84330 6.81047 34747 ft 465 kts 189°
2026-05-05 23:14 30.77865 6.81118 34729 ft 465 kts 189°
2026-05-05 23:14 30.71393 6.81187 34744 ft 465 kts 189°
2026-05-05 23:15 30.64923 6.81258 34739 ft 465 kts 189°
2026-05-05 23:15 30.58449 6.81328 34739 ft 465 kts 189°
2026-05-05 23:16 30.52016 6.81398 34742 ft 465 kts 189°
2026-05-05 23:16 30.45548 6.81468 34758 ft 465 kts 189°
2026-05-05 23:17 30.39074 6.81537 34742 ft 465 kts 189°
2026-05-05 23:17 30.32602 6.81606 34743 ft 465 kts 189°
2026-05-05 23:18 30.26131 6.81677 34749 ft 465 kts 189°
2026-05-05 23:18 30.19662 6.81747 34740 ft 465 kts 189°
2026-05-05 23:19 30.13184 6.81815 34743 ft 465 kts 189°
2026-05-05 23:19 30.06714 6.81885 34744 ft 465 kts 189°
2026-05-05 23:20 30.00240 6.81954 34746 ft 465 kts 189°
2026-05-05 23:20 29.93765 6.82024 34742 ft 465 kts 189°
2026-05-05 23:21 29.87293 6.82093 34746 ft 465 kts 189°
2026-05-05 23:21 29.80832 6.82161 34745 ft 464 kts 189°
2026-05-05 23:22 29.74371 6.82228 34752 ft 464 kts 189°
2026-05-05 23:22 29.67908 6.82298 34752 ft 464 kts 189°
2026-05-05 23:23 29.61448 6.82367 34751 ft 464 kts 188°
2026-05-05 23:23 29.54984 6.82435 34753 ft 464 kts 188°
2026-05-05 23:24 29.48527 6.82502 34761 ft 465 kts 188°
2026-05-05 23:24 29.42062 6.82573 34760 ft 464 kts 188°
2026-05-05 23:25 29.35598 6.82642 34744 ft 464 kts 188°
2026-05-05 23:25 29.29140 6.82708 34763 ft 464 kts 188°
2026-05-05 23:26 29.22672 6.82776 34760 ft 465 kts 188°
2026-05-05 23:26 29.16212 6.82841 34766 ft 464 kts 188°
2026-05-05 23:27 29.09748 6.82911 34766 ft 464 kts 188°
2026-05-05 23:27 29.03284 6.82981 34764 ft 466 kts 188°
2026-05-05 23:28 28.96803 6.83048 34766 ft 466 kts 188°
2026-05-05 23:28 28.90365 6.83115 34772 ft 466 kts 188°
2026-05-05 23:29 28.83883 6.83184 34780 ft 466 kts 188°
2026-05-05 23:29 28.77409 6.83253 34768 ft 465 kts 188°
2026-05-05 23:30 28.71981 6.83308 34781 ft 466 kts 188°
2026-05-05 23:30 28.65540 6.83375 34784 ft 466 kts 188°
2026-05-05 23:31 28.59054 6.83442 34791 ft 466 kts 188°
2026-05-05 23:31 28.52579 6.83510 34791 ft 466 kts 188°
2026-05-05 23:32 28.46099 6.83578 34786 ft 466 kts 188°
2026-05-05 23:32 28.39623 6.83645 34793 ft 465 kts 188°
2026-05-05 23:33 28.33153 6.83712 34799 ft 465 kts 188°
2026-05-05 23:33 28.26679 6.83779 34799 ft 465 kts 188°
2026-05-05 23:34 28.20205 6.83845 34802 ft 465 kts 188°
2026-05-05 23:34 28.13729 6.83961 34802 ft 469 kts 184°
2026-05-05 23:35 28.07216 6.84570 34812 ft 471 kts 183°
2026-05-05 23:35 28.00686 6.85290 34816 ft 472 kts 183°
2026-05-05 23:36 27.94156 6.86030 34810 ft 472 kts 183°
2026-05-05 23:36 27.87614 6.86761 34791 ft 472 kts 182°
2026-05-05 23:37 27.81112 6.87482 34814 ft 473 kts 182°
2026-05-05 23:37 27.74569 6.88205 34817 ft 472 kts 182°
2026-05-05 23:38 27.68026 6.88927 34815 ft 472 kts 182°
2026-05-05 23:38 27.61485 6.89647 34816 ft 472 kts 182°
2026-05-05 23:39 27.54941 6.90367 34810 ft 473 kts 182°
2026-05-05 23:39 27.48393 6.91087 34813 ft 473 kts 182°
2026-05-05 23:40 27.41854 6.91804 34827 ft 472 kts 182°
2026-05-05 23:40 27.35311 6.92521 34822 ft 472 kts 182°
2026-05-05 23:41 27.28764 6.93237 34824 ft 472 kts 182°
2026-05-05 23:41 27.22217 6.93952 34826 ft 473 kts 182°
2026-05-05 23:42 27.15655 6.94669 34831 ft 473 kts 182°
2026-05-05 23:42 27.09097 6.95385 34831 ft 473 kts 182°
2026-05-05 23:43 27.02544 6.96099 34835 ft 473 kts 182°
2026-05-05 23:43 26.95988 6.96813 34833 ft 473 kts 182°
2026-05-05 23:44 26.89427 6.97526 34844 ft 474 kts 183°
2026-05-05 23:44 26.82871 6.98240 34846 ft 473 kts 182°
2026-05-05 23:45 26.76321 6.98951 34851 ft 473 kts 182°
2026-05-05 23:45 26.69767 6.99660 34845 ft 472 kts 183°
2026-05-05 23:46 26.63253 7.00366 34860 ft 470 kts 182°
2026-05-05 23:46 26.56752 7.01067 34858 ft 469 kts 182°
2026-05-05 23:47 26.50272 7.01766 34861 ft 471 kts 182°
2026-05-05 23:47 26.43709 7.02475 34873 ft 471 kts 182°
2026-05-05 23:48 26.37225 7.03172 34866 ft 471 kts 182°
2026-05-05 23:48 26.30694 7.03873 34890 ft 472 kts 182°
2026-05-05 23:49 26.24160 7.04575 34888 ft 471 kts 182°
2026-05-05 23:49 26.17633 7.05277 34905 ft 471 kts 182°
2026-05-05 23:50 26.11103 7.05971 34896 ft 472 kts 182°
2026-05-05 23:50 26.04562 7.06671 34915 ft 473 kts 182°
2026-05-05 23:51 25.98006 7.07376 34920 ft 472 kts 182°
2026-05-05 23:51 25.91483 7.08093 34911 ft 470 kts 182°
2026-05-05 23:52 25.84966 7.08808 34931 ft 471 kts 182°
2026-05-05 23:52 25.78427 7.09517 34945 ft 473 kts 182°
2026-05-05 23:53 25.71874 7.10230 34946 ft 473 kts 182°
2026-05-05 23:53 25.65334 7.10941 34949 ft 472 kts 182°
2026-05-05 23:54 25.58788 7.11654 34949 ft 472 kts 182°
2026-05-05 23:54 25.52250 7.12363 34953 ft 472 kts 182°
2026-05-05 23:55 25.45752 7.13065 34946 ft 472 kts 182°
2026-05-05 23:55 25.39210 7.13773 34956 ft 472 kts 182°
2026-05-05 23:56 25.32672 7.14479 34963 ft 472 kts 182°
2026-05-05 23:56 25.26131 7.15186 34963 ft 472 kts 182°
2026-05-05 23:57 25.19588 7.15892 34963 ft 472 kts 182°
2026-05-05 23:57 25.13048 7.16595 34970 ft 473 kts 181°
2026-05-05 23:58 25.06478 7.17300 34962 ft 475 kts 181°
2026-05-05 23:58 24.99895 7.18010 34956 ft 475 kts 181°
2026-05-05 23:59 24.93311 7.18722 34961 ft 475 kts 181°
2026-05-05 23:59 24.86730 7.19432 34950 ft 475 kts 181°
2026-05-06 00:00 24.80143 7.20137 34945 ft 476 kts 181°
2026-05-06 00:00 24.73553 7.20844 34950 ft 476 kts 181°
2026-05-06 00:01 24.66967 7.21551 34953 ft 476 kts 181°
2026-05-06 00:01 24.60373 7.22257 34949 ft 476 kts 181°
2026-05-06 00:02 24.53784 7.22962 34945 ft 476 kts 181°
2026-05-06 00:02 24.47191 7.23668 34947 ft 476 kts 181°
2026-05-06 00:03 24.40603 7.24372 34950 ft 476 kts 181°
2026-05-06 00:03 24.34015 7.25075 34943 ft 476 kts 181°
2026-05-06 00:04 24.27425 7.25778 34940 ft 476 kts 181°
2026-05-06 00:04 24.20881 7.26476 34932 ft 476 kts 182°
2026-05-06 00:05 24.10987 7.27528 34949 ft 476 kts 182°
2026-05-06 00:06 24.04391 7.28228 34950 ft 476 kts 182°
2026-05-06 00:06 23.97797 7.28929 34951 ft 476 kts 182°
2026-05-06 00:07 23.91203 7.29629 34943 ft 476 kts 182°
2026-05-06 00:07 23.84616 7.30326 34939 ft 475 kts 182°
2026-05-06 00:08 23.78054 7.31022 34936 ft 473 kts 182°
2026-05-06 00:08 23.71500 7.31714 34936 ft 473 kts 182°
2026-05-06 00:09 23.64942 7.32406 34931 ft 474 kts 182°
2026-05-06 00:09 23.58380 7.33098 34931 ft 474 kts 182°
2026-05-06 00:10 23.51808 7.33789 34919 ft 476 kts 181°
2026-05-06 00:10 23.45204 7.34599 34926 ft 479 kts 179°
2026-05-06 00:11 23.38603 7.35599 34916 ft 479 kts 179°
2026-05-06 00:11 23.32001 7.36602 34919 ft 479 kts 179°
2026-05-06 00:12 23.25398 7.37572 34896 ft 479 kts 179°
2026-05-06 00:12 23.18827 7.38518 34912 ft 481 kts 179°
2026-05-06 00:13 23.12190 7.39470 34911 ft 481 kts 179°
2026-05-06 00:13 23.05550 7.40424 34904 ft 481 kts 179°
2026-05-06 00:14 22.98909 7.41379 34896 ft 481 kts 179°
2026-05-06 00:14 22.92264 7.42333 34884 ft 482 kts 178°
2026-05-06 00:15 22.85594 7.43288 34899 ft 485 kts 178°
2026-05-06 00:15 22.78905 7.44246 34887 ft 485 kts 178°
2026-05-06 00:16 22.72213 7.45204 34886 ft 485 kts 178°
2026-05-06 00:16 22.65522 7.46162 34878 ft 485 kts 178°
2026-05-06 00:17 22.58831 7.47117 34873 ft 485 kts 178°
2026-05-06 00:17 22.52118 7.48072 34874 ft 487 kts 178°
2026-05-06 00:18 22.45394 7.49031 34868 ft 487 kts 178°
2026-05-06 00:18 22.38718 7.49983 34862 ft 487 kts 178°
2026-05-06 00:19 22.31999 7.50939 34860 ft 487 kts 178°
2026-05-06 00:19 22.25278 7.51894 34845 ft 487 kts 178°
2026-05-06 00:20 22.18558 7.52848 34851 ft 487 kts 178°
2026-05-06 00:20 22.11831 7.53802 34842 ft 487 kts 178°
2026-05-06 00:21 22.05109 7.54755 34842 ft 487 kts 178°
2026-05-06 00:21 21.99518 7.55547 34832 ft 487 kts 178°
2026-05-06 00:22 21.92798 7.56497 34831 ft 487 kts 178°
2026-05-06 00:22 21.86075 7.57447 34821 ft 487 kts 178°
2026-05-06 00:23 21.79350 7.58396 34825 ft 487 kts 178°
2026-05-06 00:23 21.72619 7.59345 34824 ft 489 kts 179°
2026-05-06 00:24 21.65860 7.60297 34822 ft 490 kts 179°
2026-05-06 00:24 21.59097 7.61249 34815 ft 490 kts 179°
2026-05-06 00:25 21.52360 7.62199 34825 ft 488 kts 179°
2026-05-06 00:25 21.45631 7.63145 34823 ft 487 kts 179°
2026-05-06 00:26 21.38903 7.64088 34821 ft 487 kts 179°
2026-05-06 00:26 21.32180 7.65031 34818 ft 487 kts 179°
2026-05-06 00:27 21.25452 7.65973 34818 ft 487 kts 179°
2026-05-06 00:27 21.18729 7.66915 34818 ft 487 kts 179°
2026-05-06 00:28 21.12001 7.67856 34820 ft 487 kts 179°
2026-05-06 00:28 21.05276 7.68796 34815 ft 487 kts 179°
2026-05-06 00:29 20.98594 7.69728 34815 ft 487 kts 179°
2026-05-06 00:29 20.91870 7.70547 34814 ft 485 kts 181°
2026-05-06 00:30 20.85140 7.71038 34817 ft 485 kts 182°
2026-05-06 00:30 20.78405 7.71501 34815 ft 485 kts 182°
2026-05-06 00:31 20.71668 7.72013 34813 ft 486 kts 182°
2026-05-06 00:31 20.64928 7.72554 34812 ft 486 kts 182°
2026-05-06 00:32 20.58186 7.73100 34814 ft 487 kts 182°
2026-05-06 00:32 20.51424 7.73645 34812 ft 488 kts 182°
2026-05-06 00:33 20.44654 7.74190 34815 ft 488 kts 182°
2026-05-06 00:33 20.37885 7.74734 34823 ft 488 kts 182°
2026-05-06 00:34 20.31111 7.75278 34825 ft 488 kts 182°
2026-05-06 00:34 20.24344 7.75821 34825 ft 487 kts 181°
2026-05-06 00:35 20.17578 7.76363 34826 ft 487 kts 181°
2026-05-06 00:35 20.10820 7.76904 34827 ft 487 kts 181°
2026-05-06 00:36 20.04056 7.77445 34823 ft 487 kts 181°
2026-05-06 00:36 19.97338 7.77981 34821 ft 487 kts 181°
2026-05-06 00:37 19.90574 7.78520 34824 ft 488 kts 181°
2026-05-06 00:37 19.83800 7.79060 34818 ft 488 kts 181°
2026-05-06 00:38 19.77024 7.79600 34817 ft 488 kts 181°
2026-05-06 00:38 19.70252 7.80139 34818 ft 488 kts 181°
2026-05-06 00:39 19.63475 7.80678 34815 ft 488 kts 181°
2026-05-06 00:39 19.56694 7.81216 34815 ft 489 kts 181°
2026-05-06 00:40 19.49911 7.81753 34816 ft 489 kts 181°
2026-05-06 00:40 19.43127 7.82306 34814 ft 489 kts 181°
2026-05-06 00:41 19.36340 7.82871 34813 ft 489 kts 181°
2026-05-06 00:41 19.29549 7.83435 34808 ft 489 kts 181°
2026-05-06 00:42 19.22761 7.83996 34818 ft 490 kts 181°
2026-05-06 00:42 19.15971 7.84555 34810 ft 490 kts 181°
2026-05-06 00:43 19.09176 7.85114 34799 ft 490 kts 181°
2026-05-06 00:43 19.02378 7.85673 34796 ft 490 kts 181°
2026-05-06 00:44 18.95631 7.86228 34804 ft 490 kts 181°
2026-05-06 00:44 18.88836 7.86786 34808 ft 490 kts 180°
2026-05-06 00:45 18.82041 7.87345 34804 ft 490 kts 180°
2026-05-06 00:45 18.75247 7.87903 34798 ft 490 kts 180°
2026-05-06 00:46 18.68445 7.88460 34810 ft 490 kts 180°
2026-05-06 00:46 18.61644 7.89015 34807 ft 490 kts 180°
2026-05-06 00:47 18.54844 7.89571 34816 ft 491 kts 180°
2026-05-06 00:47 18.48029 7.90127 34816 ft 491 kts 180°
2026-05-06 00:48 18.41218 7.90684 34810 ft 491 kts 180°
2026-05-06 00:48 18.34408 7.91241 34819 ft 491 kts 180°
2026-05-06 00:49 18.27590 7.91797 34806 ft 491 kts 180°
2026-05-06 00:49 18.20771 7.92351 34809 ft 492 kts 180°
2026-05-06 00:50 18.13941 7.92907 34818 ft 493 kts 180°
2026-05-06 00:50 18.07110 7.93463 34815 ft 492 kts 180°
2026-05-06 00:51 18.00320 7.94015 34818 ft 492 kts 180°
2026-05-06 00:51 17.93492 7.94570 34817 ft 492 kts 180°
2026-05-06 00:52 17.86661 7.95125 34816 ft 492 kts 180°
2026-05-06 00:52 17.79828 7.95679 34817 ft 492 kts 180°
2026-05-06 00:53 17.72991 7.96232 34812 ft 492 kts 180°
2026-05-06 00:53 17.66161 7.96785 34812 ft 492 kts 180°
2026-05-06 00:54 17.59327 7.97338 34817 ft 492 kts 180°
2026-05-06 00:54 17.52502 7.97890 34810 ft 492 kts 180°
2026-05-06 00:55 17.45669 7.98441 34816 ft 492 kts 180°
2026-05-06 00:55 17.38840 7.98993 34814 ft 492 kts 180°
2026-05-06 00:56 17.32009 7.99544 34815 ft 492 kts 180°
2026-05-06 00:56 17.25179 8.00094 34811 ft 492 kts 180°
2026-05-06 00:57 17.18347 8.00644 34810 ft 493 kts 180°
2026-05-06 00:57 17.11498 8.01195 34807 ft 494 kts 180°
2026-05-06 00:58 17.04698 8.01742 34807 ft 493 kts 180°
2026-05-06 00:58 16.97850 8.02292 34801 ft 493 kts 180°
2026-05-06 00:59 16.91006 8.02901 34801 ft 494 kts 179°
2026-05-06 00:59 16.84150 8.03584 34795 ft 496 kts 179°
2026-05-06 01:00 16.77272 8.04266 34799 ft 497 kts 179°
2026-05-06 01:00 16.70387 8.04935 34804 ft 497 kts 179°
2026-05-06 01:01 16.63499 8.05598 34801 ft 497 kts 179°
2026-05-06 01:01 16.56609 8.06260 34796 ft 497 kts 179°
2026-05-06 01:02 16.49723 8.06922 34799 ft 497 kts 179°
2026-05-06 01:02 16.42831 8.07583 34797 ft 497 kts 179°
2026-05-06 01:03 16.35938 8.08245 34797 ft 497 kts 179°
2026-05-06 01:03 16.29042 8.08906 34801 ft 498 kts 179°
2026-05-06 01:04 16.22152 8.09566 34799 ft 497 kts 179°
2026-05-06 01:04 16.15300 8.10222 34793 ft 498 kts 179°
2026-05-06 01:05 16.08390 8.10883 34808 ft 499 kts 179°
2026-05-06 01:05 16.01473 8.11544 34810 ft 499 kts 179°